1 Minute Report
Date Time Wind Direction Wind Speed Wind Gust Wind Variable Altimeter Temperature Dewpoint Relative Humidity Visibility Ceiling Precip Present Weather Density Alt Wind Chill Heat Index
18/10/20 12:20 250 10 15 N/A 29.67 50(F), 10(C) 44(F), 7(C) 82% 10 BKN029 BKN033 OVC055 N/A N/A N/A 46 F N/A 6238
18/10/20 12:19 250 07 N/A N/A 29.67 50(F), 10(C) 44(F), 7(C) 82% 10 BKN029 BKN033 OVC055 N/A N/A N/A 47 F N/A 6237
18/10/20 12:18 250 06 N/A N/A 29.67 50(F), 10(C) 44(F), 7(C) 82% 10 BKN029 OVC055 N/A N/A N/A 48 F N/A 6236
18/10/20 12:17 240 05 N/A N/A 29.67 50(F), 10(C) 44(F), 7(C) 82% 10 BKN029 OVC055 N/A N/A N/A 48 F N/A 6235
18/10/20 12:16 240 05 N/A N/A 29.67 50(F), 10(C) 44(F), 7(C) 82% 10 BKN031 OVC055 N/A N/A N/A 48 F N/A 6234
18/10/20 12:15 240 06 14 200V280 29.67 50(F), 10(C) 44(F), 7(C) 82% 10 BKN031 OVC055 N/A N/A N/A 48 F N/A 6233
18/10/20 12:14 230 08 14 200V260 29.67 50(F), 10(C) 44(F), 7(C) 82% 10 BKN031 OVC055 N/A N/A N/A 47 F N/A 6232
18/10/20 12:13 220 07 14 N/A 29.67 50(F), 10(C) 44(F), 7(C) 82% 10 BKN031 OVC055 N/A N/A N/A 47 F N/A 6231
18/10/20 12:12 230 06 14 N/A 29.67 50(F), 10(C) 43(F), 6(C) 76% 10 BKN031 OVC055 N/A N/A N/A 48 F N/A 6230
18/10/20 12:11 240 06 14 N/A 29.67 50(F), 10(C) 43(F), 6(C) 76% 10 BKN031 OVC055 N/A N/A N/A 48 F N/A 6229
18/10/20 12:10 240 06 14 N/A 29.67 50(F), 10(C) 43(F), 6(C) 76% 10 BKN031 OVC055 N/A N/A N/A 48 F N/A 6228
18/10/20 12:09 230 06 14 N/A 29.67 50(F), 10(C) 43(F), 6(C) 76% 10 BKN031 OVC055 N/A N/A N/A 48 F N/A 6227
18/10/20 12:08 220 06 14 180V260 29.67 50(F), 10(C) 43(F), 6(C) 76% 10 BKN031 OVC055 N/A N/A N/A 48 F N/A 6226
18/10/20 12:07 230 07 14 190V260 29.67 50(F), 10(C) 43(F), 6(C) 76% 10 BKN031 OVC055 N/A N/A N/A 47 F N/A 6225
18/10/20 12:06 230 09 14 N/A 29.67 50(F), 10(C) 43(F), 6(C) 76% 10 BKN031 OVC055 N/A N/A N/A 46 F N/A 6224
18/10/20 12:05 230 09 14 200V270 29.67 50(F), 10(C) 43(F), 6(C) 76% 10 OVC031 N/A N/A N/A 46 F N/A 6223
18/10/20 12:04 240 09 N/A 180V270 29.67 50(F), 10(C) 43(F), 6(C) 76% 10 OVC031 N/A N/A N/A 46 F N/A 6222
18/10/20 12:03 230 07 N/A 180V260 29.67 50(F), 10(C) 43(F), 6(C) 76% 10 OVC031 N/A N/A N/A 47 F N/A 6221
18/10/20 12:02 210 06 N/A 180V280 29.66 50(F), 10(C) 43(F), 6(C) 76% 10 OVC031 N/A N/A N/A 48 F N/A 6220
18/10/20 12:01 220 06 N/A N/A 29.67 50(F), 10(C) 43(F), 6(C) 76% 10 OVC031 N/A N/A N/A 48 F N/A 6219
18/10/20 12:00 220 04 N/A N/A 29.67 49(F), 9(C) 43(F), 6(C) 81% 10 OVC031 N/A N/A N/A 49 F N/A 6218
18/10/20 11:59 210 05 N/A N/A 29.67 49(F), 9(C) 43(F), 6(C) 81% 10 OVC031 N/A N/A N/A 47 F N/A 6217
18/10/20 11:58 230 07 N/A 190V270 29.67 49(F), 9(C) 43(F), 6(C) 81% 10 OVC031 N/A N/A N/A 46 F N/A 6216
18/10/20 11:57 250 08 15 N/A 29.67 49(F), 9(C) 43(F), 6(C) 81% 10 OVC031 N/A N/A N/A 46 F N/A 6215
18/10/20 11:56 250 08 15 210V270 29.67 49(F), 9(C) 43(F), 6(C) 81% 10 OVC031 N/A N/A N/A 46 F N/A 6214
18/10/20 11:55 240 08 15 200V270 29.67 49(F), 9(C) 42(F), 6(C) 81% 10 OVC031 N/A N/A N/A 46 F N/A 6213
18/10/20 11:54 230 07 15 N/A 29.67 49(F), 9(C) 42(F), 6(C) 81% 10 OVC031 N/A N/A N/A 46 F N/A 6212
18/10/20 11:53 230 07 15 N/A 29.67 49(F), 9(C) 43(F), 6(C) 81% 10 OVC031 N/A N/A N/A 46 F N/A 6211
18/10/20 11:52 230 06 15 N/A 29.67 49(F), 9(C) 42(F), 6(C) 81% 10 OVC033 N/A N/A N/A 46 F N/A 6210
18/10/20 11:51 220 07 15 170V230 29.67 49(F), 9(C) 42(F), 6(C) 81% 10 OVC033 N/A N/A N/A 46 F N/A 6209
18/10/20 11:50 210 08 15 170V240 29.67 49(F), 9(C) 42(F), 6(C) 81% 10 OVC033 N/A N/A N/A 46 F N/A 6208
18/10/20 11:49 210 07 15 200V260 29.67 49(F), 9(C) 42(F), 6(C) 81% 10 OVC033 N/A N/A N/A 46 F N/A 6207
18/10/20 11:48 240 08 15 N/A 29.67 49(F), 9(C) 42(F), 6(C) 81% 10 OVC033 N/A N/A N/A 46 F N/A 6206
18/10/20 11:47 250 09 15 N/A 29.67 49(F), 9(C) 42(F), 6(C) 81% 10 OVC033 N/A N/A N/A 45 F N/A 6205
18/10/20 11:46 250 09 N/A N/A 29.67 49(F), 9(C) 42(F), 6(C) 81% 10 OVC033 N/A N/A N/A 45 F N/A 6204
18/10/20 11:45 240 07 N/A N/A 29.67 49(F), 9(C) 42(F), 6(C) 81% 10 SCT025 OVC033 N/A N/A N/A 46 F N/A 6203
18/10/20 11:44 240 06 N/A 210V280 29.67 49(F), 9(C) 42(F), 6(C) 81% 10 SCT025 OVC033 N/A N/A N/A 46 F N/A 6202
18/10/20 11:43 230 08 N/A 200V270 29.67 49(F), 9(C) 42(F), 6(C) 81% 10 SCT025 OVC033 N/A N/A N/A 46 F N/A 6201
18/10/20 11:42 230 08 N/A N/A 29.66 49(F), 9(C) 42(F), 6(C) 81% 10 SCT025 OVC033 N/A N/A N/A 46 F N/A 6200
18/10/20 11:41 230 05 N/A N/A 29.66 49(F), 9(C) 42(F), 6(C) 81% 10 SCT025 OVC033 N/A N/A N/A 47 F N/A 6199
18/10/20 11:40 240 05 N/A 190V270 29.66 49(F), 9(C) 42(F), 6(C) 81% 10 SCT027 OVC033 N/A N/A N/A 47 F N/A 6198
18/10/20 11:39 240 08 N/A 210V270 29.66 49(F), 9(C) 42(F), 6(C) 81% 10 SCT027 OVC033 N/A N/A N/A 46 F N/A 6197
18/10/20 11:38 240 07 N/A N/A 29.67 49(F), 9(C) 42(F), 6(C) 81% 10 SCT025 OVC033 N/A N/A N/A 46 F N/A 6196
18/10/20 11:37 250 04 N/A N/A 29.66 49(F), 9(C) 42(F), 6(C) 81% 10 SCT025 OVC033 N/A N/A N/A 49 F N/A 6195
18/10/20 11:36 250 05 N/A N/A 29.67 49(F), 9(C) 42(F), 6(C) 81% 10 SCT025 OVC033 N/A N/A N/A 47 F N/A 6194
18/10/20 11:35 240 06 N/A N/A 29.67 49(F), 9(C) 42(F), 6(C) 81% 10 SCT025 OVC033 N/A N/A N/A 46 F N/A 6193
18/10/20 11:34 240 05 N/A N/A 29.67 49(F), 9(C) 42(F), 6(C) 81% 10 SCT025 OVC033 N/A N/A N/A 47 F N/A 6192
18/10/20 11:33 230 05 N/A N/A 29.67 49(F), 9(C) 42(F), 6(C) 81% 10 SCT025 OVC033 N/A N/A N/A 47 F N/A 6191
18/10/20 11:32 230 07 N/A 120V260 29.67 49(F), 9(C) 42(F), 6(C) 81% 10 SCT025 OVC033 N/A N/A N/A 46 F N/A 6190
18/10/20 11:31 230 07 N/A 120V250 29.67 49(F), 9(C) 42(F), 6(C) 81% 10 SCT025 OVC033 N/A N/A N/A 46 F N/A 6189
18/10/20 11:30 230 07 N/A 180V280 29.67 49(F), 9(C) 42(F), 6(C) 81% 10 SCT025 OVC033 N/A N/A N/A 46 F N/A 6188
18/10/20 11:29 240 08 N/A 210V280 29.67 49(F), 9(C) 42(F), 6(C) 81% 10 SCT025 OVC033 N/A N/A N/A 46 F N/A 6187
18/10/20 11:28 240 07 N/A N/A 29.67 49(F), 9(C) 42(F), 6(C) 81% 10 SCT025 OVC033 N/A N/A N/A 46 F N/A 6186
18/10/20 11:27 240 06 N/A N/A 29.67 49(F), 9(C) 42(F), 6(C) 81% 10 SCT025 OVC033 N/A N/A N/A 46 F N/A 6185
18/10/20 11:26 240 06 N/A N/A 29.67 49(F), 9(C) 42(F), 6(C) 81% 10 SCT025 OVC033 N/A N/A N/A 46 F N/A 6184
18/10/20 11:25 250 06 N/A N/A 29.67 49(F), 9(C) 42(F), 6(C) 81% 10 SCT023 BKN031 OVC070 N/A N/A N/A 46 F N/A 6183
18/10/20 11:24 240 06 N/A 190V260 29.67 49(F), 9(C) 42(F), 6(C) 81% 10 SCT023 BKN031 OVC070 N/A N/A N/A 46 F N/A 6182
18/10/20 11:23 230 07 N/A 200V270 29.67 49(F), 9(C) 42(F), 6(C) 81% 10 SCT023 BKN031 OVC070 N/A N/A N/A 46 F N/A 6181
18/10/20 11:22 240 06 N/A N/A 29.66 49(F), 9(C) 42(F), 6(C) 81% 10 SCT025 BKN033 OVC070 N/A N/A N/A 46 F N/A 6180
18/10/20 11:21 230 04 N/A N/A 29.66 49(F), 9(C) 42(F), 6(C) 81% 10 SCT023 BKN031 OVC070 N/A N/A N/A 49 F N/A 6179
18/10/20 11:20 220 03 N/A N/A 29.66 49(F), 9(C) 42(F), 6(C) 81% 10 SCT023 BKN031 OVC070 N/A N/A N/A 49 F N/A 6178
18/10/20 11:19 230 03 N/A N/A 29.66 49(F), 9(C) 42(F), 6(C) 81% 10 SCT023 BKN031 OVC070 N/A N/A N/A 49 F N/A 6177
18/10/20 11:18 230 04 N/A N/A 29.66 49(F), 9(C) 42(F), 6(C) 81% 10 SCT023 BKN031 OVC070 N/A N/A N/A 49 F N/A 6176
18/10/20 11:17 240 06 N/A N/A 29.66 49(F), 9(C) 42(F), 6(C) 81% 10 SCT023 BKN034 OVC070 N/A N/A N/A 46 F N/A 6175
18/10/20 11:16 240 06 N/A N/A 29.66 49(F), 9(C) 42(F), 6(C) 81% 10 SCT023 BKN036 OVC070 N/A N/A N/A 46 F N/A 6174
18/10/20 11:15 240 05 N/A N/A 29.66 49(F), 9(C) 42(F), 6(C) 81% 10 SCT025 BKN036 OVC070 N/A N/A N/A 47 F N/A 6173
18/10/20 11:14 250 07 N/A 230V300 29.66 49(F), 9(C) 42(F), 6(C) 81% 10 SCT025 BKN036 OVC070 N/A N/A N/A 46 F N/A 6172
18/10/20 11:13 250 06 N/A N/A 29.66 49(F), 9(C) 42(F), 6(C) 81% 10 SCT025 BKN033 OVC070 N/A N/A N/A 46 F N/A 6171
18/10/20 11:12 240 04 N/A N/A 29.66 49(F), 9(C) 42(F), 6(C) 81% 10 SCT027 BKN037 OVC070 N/A N/A N/A 49 F N/A 6170
18/10/20 11:11 220 05 N/A N/A 29.66 49(F), 9(C) 42(F), 6(C) 81% 10 SCT027 BKN037 OVC070 N/A N/A N/A 47 F N/A 6169
18/10/20 11:10 210 06 N/A N/A 29.66 49(F), 9(C) 42(F), 6(C) 81% 10 SCT027 BKN050 OVC070 N/A N/A N/A 46 F N/A 6168
18/10/20 11:09 210 05 N/A N/A 29.66 49(F), 9(C) 42(F), 6(C) 81% 10 SCT027 BKN050 OVC070 N/A N/A N/A 47 F N/A 6167
18/10/20 11:08 240 05 N/A 220V300 29.66 49(F), 9(C) 42(F), 6(C) 81% 10 SCT027 BKN050 OVC070 N/A N/A N/A 47 F N/A 6166
18/10/20 11:07 260 08 N/A 200V310 29.67 49(F), 9(C) 42(F), 6(C) 81% 10 SCT027 BKN050 OVC070 N/A N/A N/A 46 F N/A 6165
18/10/20 11:06 260 08 N/A 200V320 29.66 49(F), 9(C) 42(F), 6(C) 81% 10 SCT027 BKN050 OVC070 N/A N/A N/A 46 F N/A 6164
18/10/20 11:05 240 06 N/A N/A 29.66 49(F), 9(C) 42(F), 6(C) 81% 10 SCT027 SCT037 OVC070 N/A N/A N/A 46 F N/A 6163
18/10/20 11:04 230 04 N/A N/A 29.66 49(F), 9(C) 42(F), 6(C) 81% 10 SCT027 SCT037 OVC070 N/A N/A N/A 49 F N/A 6162
18/10/20 11:03 240 05 N/A N/A 29.66 49(F), 9(C) 42(F), 6(C) 81% 10 SCT037 SCT050 OVC070 N/A N/A N/A 47 F N/A 6161
18/10/20 11:02 240 06 N/A N/A 29.66 49(F), 9(C) 42(F), 6(C) 81% 10 SCT037 SCT050 OVC070 N/A N/A N/A 46 F N/A 6160
18/10/20 11:01 220 04 N/A N/A 29.66 49(F), 9(C) 42(F), 6(C) 81% 10 SCT025 SCT037 OVC070 N/A N/A N/A 49 F N/A 6159
18/10/20 11:00 220 04 14 N/A 29.66 49(F), 9(C) 42(F), 6(C) 81% 10 SCT025 BKN049 OVC070 N/A N/A N/A 49 F N/A 6158
18/10/20 10:59 240 06 14 N/A 29.66 49(F), 9(C) 42(F), 6(C) 81% 10 SCT025 BKN049 OVC070 N/A N/A N/A 46 F N/A 6157
18/10/20 10:58 230 06 14 190V280 29.66 49(F), 9(C) 42(F), 6(C) 81% 10 SCT025 BKN049 OVC070 N/A N/A N/A 46 F N/A 6156
18/10/20 10:57 230 06 14 N/A 29.66 49(F), 9(C) 42(F), 6(C) 81% 10 SCT025 BKN049 OVC070 N/A N/A N/A 46 F N/A 6155
18/10/20 10:56 250 06 14 N/A 29.66 49(F), 9(C) 42(F), 6(C) 81% 10 SCT025 BKN049 OVC070 N/A N/A N/A 46 F N/A 6154
18/10/20 10:55 250 04 14 N/A 29.66 49(F), 9(C) 42(F), 6(C) 81% 10 SCT025 BKN049 OVC070 N/A N/A N/A 49 F N/A 6153
18/10/20 10:54 230 05 14 N/A 29.66 49(F), 9(C) 42(F), 6(C) 81% 10 SCT025 BKN049 OVC070 N/A N/A N/A 47 F N/A 6152
18/10/20 10:53 230 07 15 N/A 29.66 49(F), 9(C) 42(F), 6(C) 81% 10 SCT025 BKN049 OVC070 N/A N/A N/A 46 F N/A 6151
18/10/20 10:52 230 06 15 210V270 29.66 50(F), 10(C) 42(F), 6(C) 76% 10 SCT025 BKN049 OVC070 N/A N/A N/A 48 F N/A 6150
18/10/20 10:51 250 08 15 N/A 29.66 50(F), 10(C) 42(F), 6(C) 76% 10 SCT025 BKN049 OVC070 N/A N/A N/A 47 F N/A 6149
18/10/20 10:50 250 09 15 N/A 29.66 50(F), 10(C) 43(F), 6(C) 76% 10 SCT025 BKN049 OVC060 N/A N/A N/A 46 F N/A 6148
18/10/20 10:49 240 06 17 N/A 29.66 50(F), 10(C) 43(F), 6(C) 76% 10 SCT025 BKN049 OVC060 N/A N/A N/A 48 F N/A 6147
18/10/20 10:48 240 06 17 N/A 29.66 50(F), 10(C) 43(F), 6(C) 76% 10 SCT025 BKN049 OVC060 N/A N/A N/A 48 F N/A 6146
18/10/20 10:47 240 06 17 200V260 29.66 50(F), 10(C) 42(F), 6(C) 76% 10 SCT025 BKN049 OVC060 N/A N/A N/A 48 F N/A 6145
18/10/20 10:46 230 07 17 200V280 29.66 50(F), 10(C) 42(F), 6(C) 76% 10 SCT025 BKN049 OVC060 N/A N/A N/A 47 F N/A 6144
18/10/20 10:45 240 08 17 200V280 29.66 50(F), 10(C) 42(F), 6(C) 76% 10 SCT027 BKN049 OVC060 N/A N/A N/A 47 F N/A 6143
18/10/20 10:44 250 09 17 200V290 29.66 50(F), 10(C) 42(F), 6(C) 76% 10 SCT027 BKN049 OVC060 N/A N/A N/A 46 F N/A 6142
18/10/20 10:43 250 09 17 230V290 29.66 50(F), 10(C) 42(F), 6(C) 76% 10 SCT027 BKN049 OVC060 N/A N/A N/A 46 F N/A 6141
18/10/20 10:42 260 09 17 N/A 29.66 50(F), 10(C) 42(F), 6(C) 76% 10 SCT027 BKN049 OVC060 N/A N/A N/A 46 F N/A 6140
18/10/20 10:41 250 10 17 200V260 29.66 50(F), 10(C) 42(F), 6(C) 76% 10 SCT027 SCT031 OVC049 N/A N/A N/A 46 F N/A 6139
18/10/20 10:40 240 11 17 200V260 29.66 50(F), 10(C) 42(F), 6(C) 76% 10 SCT027 BKN046 OVC049 N/A N/A N/A 46 F N/A 6138
18/10/20 10:39 230 09 17 N/A 29.66 50(F), 10(C) 42(F), 6(C) 76% 10 SCT027 BKN046 OVC049 N/A N/A N/A 46 F N/A 6137
18/10/20 10:38 240 06 N/A 180V270 29.66 50(F), 10(C) 42(F), 6(C) 76% 10 SCT027 BKN046 OVC049 N/A N/A N/A 48 F N/A 6136
18/10/20 10:37 240 08 N/A 180V270 29.66 50(F), 10(C) 42(F), 6(C) 76% 10 SCT027 SCT032 OVC049 N/A N/A N/A 47 F N/A 6135
18/10/20 10:36 240 09 N/A 190V280 29.66 50(F), 10(C) 42(F), 6(C) 76% 10 SCT027 SCT032 OVC049 N/A N/A N/A 46 F N/A 6134
18/10/20 10:35 240 09 N/A 200V280 29.66 50(F), 10(C) 42(F), 6(C) 76% 10 SCT027 BKN032 OVC049 N/A N/A N/A 46 F N/A 6133
18/10/20 10:34 240 08 15 190V270 29.66 50(F), 10(C) 42(F), 6(C) 76% 10 SCT027 BKN032 OVC049 N/A N/A N/A 47 F N/A 6132
18/10/20 10:33 230 07 15 190V250 29.66 50(F), 10(C) 42(F), 6(C) 76% 10 SCT027 BKN032 OVC047 N/A N/A N/A 47 F N/A 6131
18/10/20 10:32 230 06 15 N/A 29.66 50(F), 10(C) 42(F), 6(C) 76% 10 SCT027 BKN032 OVC047 N/A N/A N/A 48 F N/A 6130
18/10/20 10:31 240 05 15 N/A 29.66 50(F), 10(C) 42(F), 6(C) 76% 10 SCT027 BKN032 OVC047 N/A N/A N/A 48 F N/A 6129
18/10/20 10:30 250 05 15 N/A 29.66 50(F), 10(C) 42(F), 6(C) 76% 10 SCT029 BKN033 OVC060 N/A N/A N/A 48 F N/A 6128
18/10/20 10:29 250 05 15 N/A 29.66 50(F), 10(C) 42(F), 6(C) 76% 10 SCT029 BKN033 OVC060 N/A N/A N/A 48 F N/A 6127
18/10/20 10:28 240 05 15 N/A 29.66 50(F), 10(C) 42(F), 6(C) 76% 10 BKN029 BKN047 OVC060 N/A N/A N/A 48 F N/A 6126
18/10/20 10:27 230 07 15 190V280 29.66 50(F), 10(C) 42(F), 6(C) 76% 10 SCT029 BKN034 OVC060 N/A N/A N/A 47 F N/A 6125
18/10/20 10:26 240 08 15 N/A 29.66 50(F), 10(C) 42(F), 6(C) 76% 10 BKN029 BKN034 OVC060 N/A N/A N/A 47 F N/A 6124
18/10/20 10:25 240 09 15 210V290 29.66 50(F), 10(C) 42(F), 6(C) 76% 10 BKN029 BKN034 OVC060 N/A N/A N/A 46 F N/A 6123
18/10/20 10:24 250 10 15 220V290 29.66 50(F), 10(C) 42(F), 6(C) 76% 10 BKN029 BKN034 OVC060 N/A N/A N/A 46 F N/A 6122
18/10/20 10:23 240 09 14 N/A 29.66 50(F), 10(C) 42(F), 6(C) 76% 10 BKN029 BKN034 OVC060 N/A N/A N/A 46 F N/A 6121
18/10/20 10:22 240 09 N/A 220V290 29.66 50(F), 10(C) 42(F), 6(C) 76% 10 SCT027 BKN031 OVC050 N/A N/A N/A 46 F N/A 6120
18/10/20 10:21 240 07 N/A N/A 29.66 50(F), 10(C) 42(F), 6(C) 76% 10 SCT027 BKN031 OVC046 N/A N/A N/A 47 F N/A 6119
18/10/20 10:20 240 04 N/A N/A 29.67 50(F), 10(C) 42(F), 6(C) 76% 10 BKN031 OVC046 N/A N/A N/A 50 F N/A 6118